NOAA 16 DEB, 41423

Orbit data source: Space-Track

NOAA 16 DEB, 41423 is space debris in SSO originally from a launch on Thu, 21 Sep 2000 UTC launched from the Air Force Western Test Range (AFWTR). Debris objects in space refer to the collection of defunct objects orbiting the Earth. Examples of debris include non-operational satellites, rocket bodies, and fragments generated from explosions, collisions, or faulty payload assembly.

Loading next visibility...
Identifier
41423, 2000-055LC
Orbit
SSO
Country
Flag of USUS
Related business
Manufacturer
Unknown
Mission
Spacecraft
Bus & Motor
Unknown
Mass
Unknown
Launch date (UTC)
2000-09-21 (26 years ago)
Launch vehicle
Unknown
Launch site
Air Force Western Test Range (AFWTR)
Object type
Payload
Rocket body
Debris
Shape & HBR
Unknown shape, 0.1 m
Radar Cross Section
Small (<0.1 m²)

Expand to show TLE details & history
Last TLE update: 1 day ago

TLE from 1 day ago
0 NOAA 16 DEB
1 41423U 00055LC  26125.48937794  .00004439  00000-0  15544-2 0  9992
2 41423  98.6669 215.4149 0008712 300.2574  59.7748 14.35589827531354
Epoch: 2026-05-05T11:44Z
TLE epoch observation values (Epoch: 2026-05-05T11:44:42.254Z)
Latitude
-0.00004°
Longitude
175.87536°
Altitude
772.911 km
Speed
7.469 km/s
True Right ascension
14h 21m 39s
True Declination
0° 00' 00"
Sunlit
Object was in full shadow at epoch
Visualization orbit readout
Latitude
Unknown
Longitude
Unknown
Altitude
Unknown
Speed
Unknown
Apparent Right ascension
Unknown
Apparent Declination
Unknown
Sunlit
N/A
Visualization observer readout
Local Sidereal Time
02:51:11
Azimuth
Unknown
Elevation
Unknown
Doppler factor
Unknown
Orbital elements
Apogee altitude
776.47 km
Perigee altitude
764.015 km
Semi-major axis
7,148.38 km
Eccentricity
0.00087
Inclination
98.6669°
RAAN
215.4149°
Arg. of periapsis
300.2574°
True anomaly
59.86111°
Mean anomaly
59.7748°
Eccentric anomaly
59.81795°
Mean motion
3.59114 °/min
Orbital period
100.25 mins
BSTAR
0.0015544
Loading maneuver chart data...
Computing Atmospheric mass density...
Loading historical data...
Loading historical data...
Loading historical data...
Loading historical data...
Loading historical data...
Loading historical data...
Loading historical data...

Documentation

Showing up to 5 results
|